New Season SmallBallMall
 
 
 
Home Forum Leagues Seasons Search Help
 

 
St Louis Cardinals Greats (STL)
today
 
ID#: 716745 since: 3/4/2019 Honor Rating: 6.8
 

Player Pos Games AB Hits AVG 1B 2B 3B HR RBI SO ERA
1 Yadier Molina CF 56 266 99 .372 90 10 0 8 26 0 -
2 Ozzie Smith P 65 231 31 .134 34 2 1 0 17 1K 3.46
3 Whitey Herzog 1B 60 262 86 .328 84 6 0 4 25 0 -
4 Lou Brock L C 66 298 142 .476 146 16 0 3 31 0 -
5 Dizzy Dean L CF 17 73 18 .246 21 2 1 1 4 6 -
6 Branch Rickey RF 54 225 84 .373 83 20 0 5 21 0 -
7 Rogers Hornsby 2B 59 270 124 .459 118 1 0 23 56 0 -
8 Red Schoendienst LF 18 72 23 .319 25 2 0 1 4 0 -
9 Bruce Sutter LF 31 133 43 .323 52 0 0 1 11 0 -
10 Bob Gibson 3B 57 253 99 .391 107 3 0 3 32 0 -
11 Stan Musial L SS 54 230 104 .452 104 19 1 0 32 0 -
12 Joe Medwick LF 57 217 51 .235 49 7 0 0 4 0 -

Big League Ranking: 148 W/L: .590 GP: 61
  Pro League Ranking: 6 W/L: .166 GP: 18
   To view full league stats, click on the league name.
 
Recent Games
League Date Opponent Id Letters Score W/L
BIG 4/9/19 Hacker's Jackers 9270 HJ 4:0 W
BIG 4/11/19 pirates 9433 msa 4:0 W
BIG 4/12/19 THE SHAW CLAN 9466 STL 10:0 L
BIG 4/12/19 Deep Space Niners 9469 DS9 1:5 W
BIG 4/12/19 Anonymous 9477 756 1:4 W
BIG 4/12/19 THE SHAW CLAN 9483 STL 11:0 L
BIG 4/12/19 Deep Space Niners 9494 DS9 6:3 W
BIG 4/12/19 Deep Space Niners 9495 DS9 1:2 W
BIG 4/13/19 THE SHAW CLAN 9509 STL 4:2 L
BIG 4/13/19 THE MATTINGLY CLAN 9514 717 0:5 W
BIG 4/13/19 Hacker's Jackers 9520 HJ 0:3 W
BIG 4/13/19 pirates 9521 msa 1:0 W
BIG 4/13/19 pirates 9525 msa 1:0 W
BIG 4/13/19 STREET OUTLAWS 9532 618 5:1 L
BIG 4/13/19 pit 9537 pit 1:3 W
BIG 4/14/19 Hacker's Jackers 9589 HJ 2:0 W
BIG 4/14/19 White House Down 9591 IVY 2:0 L
BIG 4/14/19 THE SHAW CLAN / UM 9599 STL 6:4 L
BIG 4/14/19 pirates 9608 msa 1:0 W
BIG 4/14/19 pirates 9613 msa 7:0 W
BIG 4/14/19 Hacker's Jackers 9619 HJ 0:6 W
BIG 4/15/19 pit 9648 pit 0:7 L
BIG 4/15/19 pit 9662 pit 1:5 W
BIG 4/15/19 WUshocks 9675 WSU 2:0 L
BIG 4/15/19 THE SHAW CLAN / UM 9682 STL 19:1 L
BIG 4/15/19 pirates 9700 msa 4:0 W
BIG 4/15/19 pit 9711 pit 0:2 W
BIG 4/16/19 pirates 9745 msa 3:0 W
BIG 4/16/19 THE SHAW CLAN / UM 9774 STL 7:6 L
BIG 4/16/19 pirates 9780 msa 0:5 W
BIG 4/16/19 pirates 9806 msa 1:0 W
BIG 4/16/19 pirates 9808 msa 0:6 W
BIG 4/16/19 pirates 9809 msa 3:0 W
BIG 4/17/19 THE SHAW CLAN / UM 9873 STL 13:3 L
BIG 4/17/19 Deep Space Niners 9880 DS9 6:1 W
BIG 4/17/19 Deep Space Niners 9882 DS9 6:2 L
BIG 4/17/19 Deep Space Niners 9889 DS9 1:2 W
BIG 4/17/19 THE SHAW CLAN / UM 9901 STL 11:2 L
BIG 4/17/19 Dem Beyls 9910 DBS 8:4 L
BIG 4/17/19 THE SHAW CLAN / UM 9916 STL 7:8 W
BIG 4/18/19 pit 9972 pit 7:9 W
BIG 4/18/19 Deep Space Niners 9976 DS9 3:1 L
BIG 4/18/19 Deep Space Niners 9983 DS9 4:2 L
BIG 4/19/19 Puppers 10025 PUP 4:6 L
BIG 4/19/19 Puppers 10029 PUP 6:0 W
BIG 4/19/19 Puppers 10115 PUP 3:0 W
BIG 4/19/19 Puppers 10119 PUP 5:3 L
BIG 4/19/19 Hacker's Jackers 10125 HJ 4:0 W
BIG 4/19/19 Hacker's Jackers 10135 HJ 0:5 W
ProLeague Games
6 n/a pirates 6070 msa n/a ?
6 n/a Destructive bY Design 6078 VOL n/a ?
6 n/a Oafs Red Sox 6086 oaf n/a ?
6 n/a Highway Star - BLB 6094 HS n/a ?
6 n/a Antioch League 6102 AnL n/a ?
6 n/a DRuNKeN MiLKMeN 6110 DMM n/a ?
6 n/a HILL 6118 TAD n/a ?
6 n/a Ericstown Executioners 6126 EDM n/a ?
6 4/15/19 LilDoyers 6134 LAD 4:1 W
6 4/18/19 Little Green Hearts 6143 GRH 6:5 L
6 n/a Fantasy Knights 6144 FK n/a ?
6 4/18/19 Bassnectarians 6145 BAS 0:23 W
6 4/13/19 The Punch-Outs 6146 TPO 0:33 W
6 n/a Blue Devils 6147 DUK n/a ?
6 n/a Bosco Incantato 6148 AxC n/a ?
6 4/19/19 Blind Rage 6149 (Q) 9:1 L
6 n/a Scrubs 6150 SHH n/a ?
6 n/a ROXIE'S ROCKIN RAYS 6151 RRR n/a ?
To view the opposing team's stats, click on the team name.
     
 

Privacy Policy   |    Contact Us   |    User Agreement   |    Code of Conduct